| time (UTC) | temp F | wind direction | speed MPH | gust MPH | rain 1hr in | rain 24hr in | rain mn in | humidity % | barometer mb |
| 20260901221509 | 84 | 222 | 0.0 | 0.0 | 0.01 | 0.05 | 0.03 | 79 | 1012.8 |
| 20260901220015 | 83 | 250 | 0.0 | 0.0 | 0.01 | 0.05 | 0.03 | 80 | 1013.0 |
| 20260901214524 | 83 | 131 | 0.0 | 0.0 | 0.01 | 0.05 | 0.03 | 80 | 1013.2 |
| 20260901213041 | 83 | 279 | 0.0 | 0.0 | 0.01 | 0.05 | 0.03 | 81 | 1013.4 |
| 20260901211510 | 83 | 279 | 0.0 | 0.0 | 0.00 | 0.04 | 0.02 | 80 | 1013.6 |
| 20260901210013 | 83 | 279 | 0.0 | 0.0 | 0.00 | 0.04 | 0.02 | 80 | 1013.5 |
| 20260901204532 | 83 | 128 | 0.0 | 0.0 | 0.00 | 0.05 | 0.02 | 80 | 1013.4 |
| 20260901203034 | 82 | 172 | 0.0 | 0.0 | 0.00 | 0.77 | 0.02 | 81 | 1013.4 |
| 20260901201527 | 82 | 141 | 0.0 | 0.0 | 0.01 | 1.04 | 0.02 | 81 | 1013.5 |
| 20260901200011 | 82 | 255 | 0.0 | 0.0 | 0.01 | 1.04 | 0.02 | 81 | 1013.8 |
| 20260901194515 | 82 | 212 | 0.0 | 0.0 | 0.01 | 1.04 | 0.02 | 79 | 1014.2 |
| 20260901193030 | 82 | 254 | 0.0 | 0.0 | 0.01 | 1.04 | 0.02 | 79 | 1014.5 |
| 20260901191530 | 82 | 262 | 0.0 | 0.0 | 0.00 | 1.04 | 0.01 | 79 | 1014.5 |
| 20260901190028 | 83 | 345 | 0.0 | 0.0 | 0.00 | 1.04 | 0.01 | 78 | 1014.7 |
| 20260901184527 | 83 | 238 | 0.0 | 0.0 | 0.00 | 1.04 | 0.01 | 78 | 1014.9 |
| 20260901183017 | 83 | 239 | 0.0 | 0.0 | 0.00 | 1.04 | 0.01 | 78 | 1015.1 |
| 20260901181538 | 83 | 289 | 0.0 | 0.0 | 0.00 | 1.04 | 0.01 | 80 | 1015.1 |
| 20260901180031 | 83 | 249 | 0.0 | 0.0 | 0.00 | 1.04 | 0.01 | 81 | 1015.1 |
| 20260901174548 | 83 | 245 | 0.0 | 0.0 | 0.00 | 1.04 | 0.01 | 80 | 1015.2 |
| 20260901173014 | 83 | 235 | 0.0 | 0.0 | 0.00 | 1.04 | 0.01 | 80 | 1015.5 |
| 20260901171524 | 84 | 288 | 0.0 | 0.0 | 0.00 | 1.04 | 0.01 | 79 | 1015.9 |
| 20260901170027 | 85 | 314 | 0.0 | 0.0 | 0.00 | 1.04 | 0.01 | 76 | 1016.2 |
| 20260901164537 | 85 | 41 | 0.0 | 0.0 | 0.00 | 1.04 | 0.01 | 74 | 1016.2 |
| 20260901163033 | 85 | 15 | 0.0 | 0.0 | 0.00 | 1.04 | 0.01 | 75 | 1016.3 |
| 20260901161520 | 86 | 65 | 0.0 | 0.0 | 0.00 | 1.04 | 0.01 | 74 | 1016.2 |
| 20260901160036 | 86 | 236 | 0.0 | 0.0 | 0.00 | 1.04 | 0.01 | 73 | 1016.0 |
| 20260901154533 | 86 | 248 | 0.0 | 0.0 | 0.00 | 1.04 | 0.01 | 74 | 1015.8 |
| 20260901153028 | 85 | 323 | 0.0 | 0.0 | 0.00 | 1.04 | 0.01 | 76 | 1015.8 |
| 20260901151533 | 84 | 358 | 0.0 | 0.0 | 0.00 | 1.04 | 0.01 | 78 | 1015.7 |
| 20260901150025 | 83 | 5 | 0.0 | 0.0 | 0.00 | 1.04 | 0.01 | 80 | 1015.6 |
| 20260901144523 | 82 | 309 | 0.0 | 0.0 | 0.00 | 1.04 | 0.01 | 81 | 1015.6 |
| 20260901143030 | 82 | 250 | 0.0 | 0.0 | 0.00 | 1.04 | 0.01 | 81 | 1015.7 |
| 20260901141509 | 81 | 216 | 0.0 | 0.0 | 0.01 | 1.04 | 0.01 | 81 | 1015.8 |
| 20260901140013 | 80 | 287 | 0.0 | 0.0 | 0.01 | 1.04 | 0.01 | 81 | 1015.6 |
| 20260901134527 | 80 | 268 | 0.0 | 0.0 | 0.01 | 1.04 | 0.01 | 79 | 1015.7 |
| 20260901133027 | 79 | 257 | 0.0 | 0.0 | 0.01 | 1.04 | 0.01 | 74 | 1015.8 |
| 20260901131527 | 79 | 257 | 0.0 | 0.0 | 0.00 | 1.03 | 0.00 | 70 | 1015.5 |
| 20260901130036 | 0 | 0.0 | 0.0 | 0.00 | 1.03 | 0.00 | 1015.4 | ||
| 20260901124538 | 0 | 0.0 | 0.0 | 0.00 | 1.03 | 0.00 | 1015.4 | ||
| 20260901123046 | 0 | 0.0 | 0.0 | 0.00 | 1.03 | 0.00 | 1015.1 | ||
| 20260901121538 | 0 | 0.0 | 0.0 | 0.00 | 1.03 | 0.00 | 1014.9 | ||
| 20260901120046 | 0 | 0.0 | 0.0 | 0.00 | 1.03 | 0.00 | 1014.8 | ||
| 20260901114541 | 0 | 0.0 | 0.0 | 0.00 | 1.03 | 0.00 | 1014.6 | ||
| 20260901113040 | 0 | 0.0 | 0.0 | 0.00 | 1.03 | 0.00 | 1014.8 | ||
| 20260901111537 | 0 | 0.0 | 0.0 | 0.00 | 1.03 | 0.00 | 1014.7 | ||
| 20260901110034 | 0 | 0.0 | 0.0 | 0.00 | 1.03 | 0.00 | 1014.6 | ||
| 20260901104542 | 0 | 0.0 | 0.0 | 0.00 | 1.03 | 0.00 | 1014.6 | ||
| 20260901103036 | 0 | 0.0 | 0.0 | 0.00 | 1.03 | 0.00 | 1014.6 | ||
| 20260901101537 | 0 | 0.0 | 0.0 | 0.00 | 1.03 | 0.00 | 1014.7 | ||
| 20260901100036 | 0 | 0.0 | 0.0 | 0.00 | 1.03 | 0.00 | 1014.6 | ||
| 20260901094537 | 75 | 0.0 | 0.0 | 0.00 | 1.03 | 0.00 | 65 | 1014.6 | |
| 20260901093032 | 77 | 117 | 0.0 | 0.0 | 0.00 | 1.03 | 0.00 | 65 | 1014.8 |
| 20260901091534 | 77 | 117 | 0.0 | 0.0 | 0.00 | 1.03 | 0.00 | 65 | 1014.9 |
| 20260901090023 | 77 | 117 | 0.0 | 0.0 | 0.00 | 1.03 | 0.00 | 65 | 1015.1 |
| 20260901084524 | 77 | 117 | 0.0 | 0.0 | 0.00 | 1.03 | 0.00 | 65 | 1015.0 |
| 20260901083031 | 77 | 117 | 0.0 | 0.0 | 0.00 | 1.03 | 0.00 | 65 | 1014.9 |
| 20260901081530 | 76 | 117 | 0.0 | 0.0 | 0.00 | 1.03 | 0.00 | 65 | 1014.9 |
| 20260901080037 | 77 | 117 | 0.0 | 0.0 | 0.00 | 1.03 | 0.00 | 65 | 1014.9 |
| 20260901074519 | 77 | 117 | 0.0 | 0.0 | 0.00 | 1.03 | 0.00 | 65 | 1015.0 |
| 20260901073032 | 77 | 117 | 0.0 | 0.0 | 0.00 | 1.03 | 0.00 | 66 | 1014.9 |
| 20260901071532 | 77 | 117 | 0.0 | 0.0 | 0.00 | 1.03 | 0.00 | 66 | 1015.2 |
| 20260901070015 | 77 | 117 | 0.0 | 0.0 | 0.00 | 1.03 | 0.00 | 66 | 1015.2 |
| 20260901064519 | 78 | 117 | 0.0 | 0.0 | 0.00 | 1.03 | 0.00 | 66 | 1015.2 |
| 20260901063032 | 78 | 117 | 0.0 | 0.0 | 0.00 | 1.03 | 0.00 | 66 | 1015.1 |
| 20260901061506 | 78 | 117 | 0.0 | 0.0 | 0.00 | 1.03 | 0.00 | 66 | 1015.2 |
| 20260901060006 | 78 | 117 | 0.0 | 0.0 | 0.00 | 1.03 | 0.00 | 66 | 1015.4 |
| 20260901054515 | 78 | 117 | 0.0 | 0.0 | 0.00 | 1.03 | 0.00 | 67 | 1015.3 |
| 20260901053024 | 78 | 117 | 0.0 | 0.0 | 0.00 | 1.03 | 0.00 | 68 | 1015.2 |
| 20260901051533 | 78 | 117 | 0.0 | 0.0 | 0.00 | 1.03 | 0.00 | 67 | 1015.2 |
| 20260901050007 | 78 | 117 | 0.0 | 0.0 | 0.00 | 1.03 | 0.00 | 68 | 1015.2 |
| 20260901044512 | 78 | 117 | 0.0 | 0.0 | 0.00 | 1.03 | 1.03 | 70 | 1015.1 |
| 20260901043029 | 78 | 117 | 0.0 | 0.0 | 0.00 | 1.03 | 1.03 | 70 | 1015.1 |
| 20260901041523 | 78 | 117 | 0.0 | 0.0 | 0.00 | 1.03 | 1.03 | 71 | 1015.2 |
| 20260901040030 | 78 | 117 | 0.0 | 0.0 | 0.00 | 1.03 | 1.03 | 72 | 1015.2 |
| 20260901034508 | 78 | 117 | 0.0 | 0.0 | 0.00 | 1.03 | 1.03 | 72 | 1015.1 |
| 20260901033017 | 78 | 117 | 0.0 | 0.0 | 0.00 | 1.03 | 1.03 | 73 | 1015.0 |
| 20260901031518 | 79 | 117 | 0.0 | 0.0 | 0.00 | 1.03 | 1.03 | 73 | 1015.1 |
| 20260901030023 | 78 | 117 | 0.0 | 0.0 | 0.00 | 1.03 | 1.03 | 73 | 1014.9 |
| 20260901024531 | 79 | 117 | 0.0 | 0.0 | 0.00 | 1.03 | 1.03 | 74 | 1014.5 |
| 20260901023008 | 79 | 117 | 0.0 | 0.0 | 0.00 | 1.03 | 1.03 | 75 | 1014.3 |
| 20260901021514 | 79 | 117 | 0.0 | 0.0 | 0.00 | 1.03 | 1.03 | 76 | 1014.1 |
| 20260901020023 | 79 | 117 | 0.0 | 0.0 | 0.00 | 1.03 | 1.03 | 76 | 1013.9 |
| 20260901014527 | 79 | 117 | 0.0 | 0.0 | 0.00 | 1.03 | 1.03 | 78 | 1013.9 |
| 20260901013034 | 80 | 117 | 0.0 | 0.0 | 0.00 | 1.03 | 1.03 | 78 | 1013.7 |
| 20260901011516 | 81 | 117 | 0.0 | 0.0 | 0.02 | 1.03 | 1.03 | 79 | 1013.9 |
| 20260901010017 | 81 | 117 | 0.0 | 0.0 | 0.02 | 1.03 | 1.03 | 80 | 1013.9 |
| 20260901004526 | 82 | 117 | 0.0 | 0.0 | 0.02 | 1.04 | 1.03 | 80 | 1013.8 |
| 20260901003035 | 82 | 117 | 0.0 | 0.0 | 0.02 | 1.04 | 1.03 | 81 | 1013.9 |
| 20260901001532 | 83 | 117 | 0.0 | 0.0 | 0.00 | 1.02 | 1.01 | 80 | 1014.0 |
| 20260901000014 | 83 | 117 | 0.0 | 0.0 | 0.00 | 1.02 | 1.01 | 80 | 1013.9 |
| 20260831234518 | 83 | 117 | 0.0 | 0.0 | 0.00 | 1.02 | 1.01 | 80 | 1014.0 |
| 20260831233025 | 83 | 117 | 0.0 | 0.0 | 0.00 | 1.02 | 1.01 | 79 | 1014.1 |
| 20260831231536 | 83 | 117 | 0.0 | 0.0 | 0.00 | 1.02 | 1.01 | 77 | 1014.2 |
| 20260831230036 | 83 | 117 | 0.0 | 0.0 | 0.00 | 1.02 | 1.01 | 72 | 1014.0 |
| 20260831224514 | 82 | 117 | 0.0 | 0.0 | 0.00 | 1.02 | 1.01 | 69 | 1014.1 |
| 20260831223021 | 82 | 117 | 0.0 | 0.0 | 0.00 | 1.02 | 1.01 | 67 | 1014.3 |